World > North America > United States > Illinois

Ottawa, Illinois Regional Weather

Lat: 41.35N, Lon: 88.84W
Wx Zone: ILZ019Web Search

Helpful Tip: Type the letters wx in the search engine next time you need to find us.

Feedback
Ottawa Weather Map
UTC Time: 11/27/2020, 19:24
Your Time:

Ottawa, IL Regional Weather

Expires:202011272000;;487665
ASUS43 KLOT 271909
RWRIL 

ILLINOIS REGIONAL WEATHER ROUNDUP
NATIONAL WEATHER SERVICE CHICAGO/ROMEOVILLE IL
100 PM CST FRI NOV 27 2020

NOTE: "FAIR" INDICATES FEW OR NO CLOUDS BELOW 12,000 FEET WITH NO
SIGNIFICANT WEATHER AND/OR OBSTRUCTIONS TO VISIBILITY.

* THESE STATIONS ARE NOT UNDER NWS QUALITY CONTROL. THEY ALSO MAY NOT
  REPORT WEATHER SUCH AS PRECIPITATION OR FOG.


ILZ005-006-012>014-019>023-272000-
NORTHEAST ILLINOIS
  
CITY           SKY/WX    TMP DP  RH WIND       PRES   REMARKS
CHICAGO-OHARE  MOSUNNY   42  34  73 W8        30.05F                  
CHICAGO-MIDWAY PTSUNNY   44  36  73 W7        30.05F                  
AURORA         PTSUNNY   40  36  86 W10       30.07F                  
JOLIET*        CLOUDY    42  38  85 W7        30.09S                  
WAUKEGAN       MOSUNNY   44  32  62 VRB6      30.04F                  
DUPAGE AIRPORT MOSUNNY   42  33  70 NW10      30.06F                  
KANKAKEE*      CLOUDY    45  39  81 W12       30.09S                  
WHEELING       MOSUNNY   44  34  67 W8        30.06F                  
MORRIS*        CLOUDY    40  39  98 W13       30.08F                  
ROMEOVILLE*    CLOUDY    40  37  86 NW10      30.07S                  
LANSING*       CLOUDY    43  38  82 W6        30.06F                  
NORTHERLY ISL*   N/A     43  37  79 SW6         N/A                   
$$


SKY/WX - Weather  TMP - Temperature  DP - Dew Point  RH - Relative Humidity
WIND - Wind Direction/Speed PRES - Barometric Pressure VSB - Visibility
WCI - Wind Chill Index E13G22 Wind - East Wind 13 mph/Gusts of 22 mph